Regional Weather Roundup
Issued by NWS

Home | Current Version | Previous Version | Text Only | Print | Product List | Glossary On
Versions: 1 2 3 4 5 6 7 8 9 10 11 12 13 14 15 16 17 18 19 20 21 22 23 24 25 26 27 28 29 30 31 32 33 34 35 36 37 38 39 40 41 42 43 44 45 46 47 48 49 50
000
ASUS42 KTBW 180810
RWRFL
FLORIDA REGIONAL WEATHER ROUNDUP
NATIONAL WEATHER SERVICE TAMPA BAY RUSKIN FL
300 AM EST THU DEC 18 2014

NOTE: "FAIR" INDICATES FEW OR NO CLOUDS BELOW 12,000 FEET WITH NO
SIGNIFICANT WEATHER AND/OR OBSTRUCTIONS TO VISIBILITY.


FLZ001>010-012>015-112-114-115-180900-
PANHANDLE FLORIDA

CITY           SKY/WX    TMP DP  RH WIND       PRES   REMARKS
PENSACOLA      PTCLDY    45  40  82 CALM      30.18S
PENSACOLA NAS  PTCLDY    42  40  92 CALM      30.18S
MILTON NAS     MOCLDY    42  38  85 N3        30.18F
CRESTVIEW      CLOUDY    38  37  97 CALM      30.19S FOG
DUKE FIELD     FAIR      38  37  95 CALM      30.18S
VALPARAISO     PTCLDY    43  39  86 N5        30.18R WCI  40
MARY ESTHER    PTCLDY    41  37  84 N6        30.17S WCI  37
TRI COUNTY     FAIR      41  40  96 CALM      30.19R
PANAMA CITY    FAIR      43  40  89 N3        30.16S
TYNDALL AFB    MOCLDY    46  42  85 N5        30.17S WCI  44
APALACHICOLA   MOCLDY    47  42  83 CALM      30.16F

STATION/POSITION SKY/WX   TEMP    WIND        PRES    WAVE   SWELL
                          AIR SEA DIR/SP/G            HT/PER HT/PER
                          (F)     (DEG/KT/KT) (MB)    (FT/S) (FT/S)
30.1N   87.6W              57 65   50/  4/  8 1021.3F   1
29.2N   88.2W              62 74   40/  2/  6 1021.3F   1/ 4
28.7N   86.0W              63 76   CALM  /  2 1021.0F   1/ 6
PANAMA CITY BEAC           47 62   20/  5/  8 1021.2F
CAPE SAN BLAS    NOT AVBL
TOWER C                    57      10/  6/  6 1020.8F
28.5N   84.5W              63 69  330/  6/  8 1020.9F   1/ 5   2/ 5

$$
FLZ011-016>038-118-127-128-134-139-239-180900-
NORTH FLORIDA

CITY           SKY/WX    TMP DP  RH WIND       PRES   REMARKS
MARIANNA       CLOUDY    43  42  97 CALM      30.17R
TALLAHASSEE    MOCLDY    40  35  83 CALM      30.15F
PERRY          MOCLDY    40  40 100 CALM      30.16S
CROSS CITY       N/A     37  35  92 CALM      30.15S
LAKE CITY      FAIR      37  37 100 CALM      30.14F FOG
GAINESVILLE    PTCLDY    45  43  93 W3        30.15S
MAYPORT NAS    PTCLDY    50  46  86 W3        30.14S
JACKSONVILLE   PTCLDY    43  42  97 CALM      30.13F
JAX NAS        PTCLDY    50  42  74 CALM      30.15S
JAX CRAIG      PTCLDY    44  41  89 CALM      30.14S
JAX CECIL      PTCLDY    37  37 100 CALM      30.15S FOG
FERNANDINA BEA FAIR      52  45  76 CALM      30.12F
ST AUGUSTINE   PTCLDY    49  45  86 W6        30.14S

STATION/POSITION SKY/WX   TEMP    WIND        PRES    WAVE   SWELL
                          AIR SEA DIR/SP/G            HT/PER HT/PER
                          (F)     (DEG/KT/KT) (MB)    (FT/S) (FT/S)
SHELL POINT                49     310/  4/  5   N/A
KEATON BEACH               49      10/  2/  2 1021.1F
CEDAR KEY                  53      40/  3/  3 1021.4F
FERNANDINA                 51 58  260/  5/  5 1019.9S
30.7N   81.3W                 60                N/A     1/11
MAYPORT                    52 60  300/  4/  6   N/A
31.4N   80.9W              56 57  300/ 10/ 12 1020.0R   1/ 9
ST AUGUSTINE               50     300/  6/  8 1021.1S

$$
FLZ040-043>046-052-053-057-058-063-144-180900-
INTERIOR CENTRAL FLORIDA

CITY           SKY/WX    TMP DP  RH WIND       PRES   REMARKS
OCALA          PTCLDY    39  36  87 CALM      30.16S
THE VILLAGES     N/A     43  43 100 CALM      30.06S
LEESBURG       CLEAR     48  45  89 NW5       30.16S
SANFORD        CLEAR     47  44  90 NW3       30.14S
ORLANDO EXEC   CLEAR     51  46  83 W6        30.14R
ORLANDO INTL   PTCLDY    49  46  90 W3        30.14S
WINTER HAVEN   CLEAR     50  47  89 NW6       30.15F
LAKELAND       CLEAR     45  43  93 CALM      30.15F
BARTOW         FAIR      45  45 100 CALM      30.15F
OKEECHOBEE     CLEAR     52  50  93 CALM      30.14F

$$
FLZ041-047-054-059-064-141-147-180900-
EAST CENTRAL FLORIDA

CITY           SKY/WX    TMP DP  RH WIND       PRES   REMARKS
DAYTONA BEACH  PTCLDY    47  45  93 CALM      30.14R
DELAND         SUNNY    N/A N/A N/A CALM      30.15S
JFK SPACE CTR  CLEAR     50  47  89 W5        30.13S
CAPE CANAVERAL CLEAR     52  48  84 W7        30.11F
PATRICK AFB    CLEAR     56  49  78 W9        30.12F
MELBOURNE      CLEAR     51  47  86 W7        30.12F
VERO BEACH     CLEAR     55  52  89 W5        30.12F
FT PIERCE      CLEAR     53  51  93 W3        30.13F
STUART         CLEAR     55  54  94 W6        30.14F

STATION/POSITION SKY/WX   TEMP    WIND        PRES    WAVE   SWELL
                          AIR SEA DIR/SP/G            HT/PER HT/PER
                          (F)     (DEG/KT/KT) (MB)    (FT/S) (FT/S)
28.5N   80.2W              66 76  270/  6/  8 1019.8F
28.9N   78.5W              70 76  270/  8/ 12 1019.6F   3/11   2/11
TRIDENT PIER               55 65  280/  6/  8 1019.5R
28.4N   80.5W                 66                N/A     1/10
27.6N   80.2W                 76                N/A     2/10

$$
FLZ050-056-061-142-242-148-248-149-249-151-251-155-255-
160-260-180900-
WEST CENTRAL FLORIDA

CITY           SKY/WX    TMP DP  RH WIND       PRES   REMARKS
CRYSTAL RIVER  FAIR      37  37 100 CALM      30.16F
INVERNESS      FAIR      39  39 100 CALM      30.17R
BROOKSVILLE    FOG       41  40  96 CALM      30.17R VSB 1/4
ZEPHYRHILLS    FAIR      41  41 100 CALM      30.17R FOG
CLEARWATER     CLEAR     50  48  93 CALM      30.15S
TAMPA INTL     PTCLDY    50  46  86 CALM      30.16S
TAMPA EXEC     PTCLDY    45  43  93 CALM      30.17R
PLANT CITY     CLEAR     46 N/A N/A NW3       30.17S
MACDILL AFB    CLEAR     46  45  95 N2        30.15F
PETER O KNIGHT CLEAR     54  52  94 CALM      30.16R
ST PETERSBURG  CLEAR     57  53  86 N3        30.14S
SARASOTA       CLEAR     49  48  97 SE3       30.14R
VENICE         FAIR      50  48  93 CALM      30.16R

STATION/POSITION SKY/WX   TEMP    WIND        PRES    WAVE   SWELL
                          AIR SEA DIR/SP/G            HT/PER HT/PER
                          (F)     (DEG/KT/KT) (MB)    (FT/S) (FT/S)
CEDAR KEY                  53      40/  3/  3 1021.4F
28.5N   84.5W              63 69  330/  6/  8 1020.9F   1/ 5   2/ 5
27.3N   84.3W                 76                N/A     2/ 6
CLEARWATER BEACH           61 64  310/  6/  7 1020.9R
MIDDLE TAMPA BAY           60     350/  5/  6 1021.1S
VENICE                     56 64   60/  5/  5 1020.7S

$$
FLZ066-069-070-075>078-162-262-165-265-180900-
SOUTHWEST FLORIDA AND KEYS

CITY           SKY/WX    TMP DP  RH WIND       PRES   REMARKS
PUNTA GORDA    CLEAR     52  49  89 CALM      30.15F
FT MYERS       CLEAR     57  53  86 CALM      30.14F
SOUTHWEST INTL CLEAR     57  55  93 CALM      30.14F
NAPLES         PTCLDY    62  61  96 NE3       30.13F
MARCO ISLAND   PTSUNNY   61  57  88 NE6       30.14F
MARATHON       PTCLDY    66  60  81 N6        30.14F
KEY WEST INTL  CLEAR     66  62  87 N6        30.14F

STATION/POSITION SKY/WX   TEMP    WIND        PRES    WAVE   SWELL
                          AIR SEA DIR/SP/G            HT/PER HT/PER
                          (F)     (DEG/KT/KT) (MB)    (FT/S) (FT/S)
VENICE                     56 64   60/  5/  5 1020.7S
NAPLES                     64 72   50/  3/  5 1021.0F
26.0N   85.6W              71 74   50/  4/  8 1020.5F   2/ 5
DRY TORTUGAS               71      40/  6/  7 1020.8F
NW FL BAY                  67      10/  8/  9 1021.3F
SAND KEY                   70      20/ 12/ 13 1020.4F
SOMBRERO KEY               69      10/ 11/ 11 1021.0F
LONG KEY                   68 68   10/ 10/ 11 1021.3F
MOLASSES REEF              68 77  350/ 12/ 13 1020.4F

$$
FLZ067-068-071>074-168-172>174-180900-
SOUTHEAST FLORIDA

CITY           SKY/WX    TMP DP  RH WIND       PRES   REMARKS
W PALM BEACH   MOCLDY    62  58  86 W5        30.12F
FT LAUDER-EXEC MOCLDY    62  56  80 W3        30.14F
FT LAUDERDALE  MOCLDY    65  57  75 W5        30.14F
POMPANO BEACH  CLOUDY    63  54  72 W6        30.13F
PEMBROKE PINES MOCLDY    63  56  78 W7        30.15F
OPA LOCKA      CLOUDY    61  56  83 W6        30.15F
MIAMI          MOCLDY    64  54  69 W5        30.15F
WEST KENDALL   MOCLDY    57  54  89 NW5       30.15F
HOMESTEAD      MOCLDY    60  54  80 CALM      30.14F

STATION/POSITION SKY/WX   TEMP    WIND        PRES    WAVE   SWELL
                          AIR SEA DIR/SP/G            HT/PER HT/PER
                          (F)     (DEG/KT/KT) (MB)    (FT/S) (FT/S)
PORT EVERGLADES            65     270/  8/ 10 1020.3
VIRGINIA KEY               67 71  330/  3/  5 1021.1F
LAKE WORTH                 65 76  240/  4/  5 1020.0F
SETTLEMENT POINT           70     160/  4/  5 1020.6F

$$




USA.gov is the U.S. government's official web portal to all federal, state and local government web resources and services.